Time,TemperatureF,DewpointF,PressureIn,WindDirection,WindDirectionDegrees,WindSpeedMPH,WindSpeedGustMPH,Humidity,HourlyPrecipIn,Conditions,Clouds,dailyrainin,SolarRadiationWatts/m^2,SoftwareType,DateUTC
2013-11-15 00:12:00,36.3,25.0,30.34,SSW,203,0.0,0.0,64,0.00,,,0.00,0,weatherlink.com 1.10,2013-11-15 05:12:00,
2013-11-15 00:27:00,35.8,25.0,30.34,SSW,203,0.0,0.0,66,0.00,,,0.00,0,weatherlink.com 1.10,2013-11-15 05:27:00,
2013-11-15 00:42:00,35.0,27.0,30.33,SSW,203,0.0,0.0,72,0.00,,,0.00,0,weatherlink.com 1.10,2013-11-15 05:42:00,
2013-11-15 00:57:00,34.1,26.0,30.34,SSW,203,0.0,0.0,73,0.00,,,0.00,0,weatherlink.com 1.10,2013-11-15 05:57:00,
2013-11-15 01:12:00,33.2,26.0,30.33,SSW,203,0.0,0.0,75,0.00,,,0.00,0,weatherlink.com 1.10,2013-11-15 06:12:00,
2013-11-15 01:27:00,32.9,26.0,30.33,SSW,203,0.0,0.0,75,0.00,,,0.00,0,weatherlink.com 1.10,2013-11-15 06:27:00,
2013-11-15 01:42:00,33.3,25.0,30.33,SSW,203,0.0,0.0,72,0.00,,,0.00,0,weatherlink.com 1.10,2013-11-15 06:42:00,
2013-11-15 01:57:00,34.0,26.0,30.32,SSW,203,0.0,0.0,72,0.00,,,0.00,0,weatherlink.com 1.10,2013-11-15 06:57:00,
2013-11-15 02:12:00,34.4,27.0,30.32,SSW,203,0.0,0.0,74,0.00,,,0.00,0,weatherlink.com 1.10,2013-11-15 07:12:00,
2013-11-15 02:27:00,34.4,27.0,30.33,SSW,203,0.0,0.0,75,0.00,,,0.00,0,weatherlink.com 1.10,2013-11-15 07:27:00,
2013-11-15 02:42:00,34.4,26.0,30.33,SSW,203,0.0,0.0,72,0.00,,,0.00,0,weatherlink.com 1.10,2013-11-15 07:42:00,
2013-11-15 02:57:00,34.1,26.0,30.33,SSW,203,0.0,0.0,73,0.00,,,0.00,0,weatherlink.com 1.10,2013-11-15 07:57:00,
2013-11-15 03:12:00,33.8,27.0,30.32,SSW,203,0.0,0.0,76,0.00,,,0.00,0,weatherlink.com 1.10,2013-11-15 08:12:00,
2013-11-15 03:27:00,33.7,27.0,30.32,SSW,203,0.0,0.0,76,0.00,,,0.00,0,weatherlink.com 1.10,2013-11-15 08:27:00,
2013-11-15 03:42:00,33.7,27.0,30.32,SSW,203,0.0,0.0,77,0.00,,,0.00,0,weatherlink.com 1.10,2013-11-15 08:42:00,
2013-11-15 03:57:00,34.0,27.0,30.32,SSW,203,0.0,0.0,75,0.00,,,0.00,0,weatherlink.com 1.10,2013-11-15 08:57:00,
2013-11-15 04:12:00,34.2,27.0,30.31,SSW,203,0.0,0.0,76,0.00,,,0.00,0,weatherlink.com 1.10,2013-11-15 09:12:00,
2013-11-15 04:27:00,34.4,28.0,30.31,SSW,203,0.0,0.0,76,0.00,,,0.00,0,weatherlink.com 1.10,2013-11-15 09:27:00,
2013-11-15 04:43:00,34.4,27.0,30.31,SSW,203,0.0,0.0,74,0.00,,,0.00,0,weatherlink.com 1.10,2013-11-15 09:43:00,
2013-11-15 04:58:00,34.6,27.0,30.31,SSW,203,0.0,0.0,75,0.00,,,0.00,0,weatherlink.com 1.10,2013-11-15 09:58:00,
2013-11-15 05:13:00,34.8,28.0,30.31,SSW,203,0.0,0.0,76,0.00,,,0.00,0,weatherlink.com 1.10,2013-11-15 10:13:00,
2013-11-15 05:28:00,35.1,29.0,30.31,SSW,203,0.0,0.0,79,0.00,,,0.00,0,weatherlink.com 1.10,2013-11-15 10:28:00,
2013-11-15 05:43:00,35.2,30.0,30.32,SSW,203,0.0,0.0,80,0.00,,,0.00,0,weatherlink.com 1.10,2013-11-15 10:43:00,
2013-11-15 05:58:00,35.1,29.0,30.32,SSW,203,0.0,0.0,78,0.00,,,0.00,0,weatherlink.com 1.10,2013-11-15 10:58:00,
2013-11-15 06:13:00,35.2,28.0,30.32,SSW,203,0.0,0.0,74,0.00,,,0.00,0,weatherlink.com 1.10,2013-11-15 11:13:00,
2013-11-15 06:28:00,35.8,29.0,30.32,SSW,203,0.0,0.0,75,0.00,,,0.00,0,weatherlink.com 1.10,2013-11-15 11:28:00,
2013-11-15 06:43:00,36.2,29.0,30.32,SSW,203,0.0,0.0,76,0.00,,,0.00,0,weatherlink.com 1.10,2013-11-15 11:43:00,
2013-11-15 06:58:00,36.7,30.0,30.32,SSW,203,0.0,0.0,77,0.00,,,0.00,0,weatherlink.com 1.10,2013-11-15 11:58:00,
2013-11-15 07:13:00,37.0,30.0,30.33,SSW,203,0.0,0.0,76,0.00,,,0.00,5,weatherlink.com 1.10,2013-11-15 12:13:00,
2013-11-15 07:28:00,37.2,30.0,30.32,SSW,203,0.0,0.0,74,0.00,,,0.00,18,weatherlink.com 1.10,2013-11-15 12:28:00,
2013-11-15 07:43:00,37.6,31.0,30.32,SSW,203,0.0,0.0,76,0.00,,,0.00,39,weatherlink.com 1.10,2013-11-15 12:43:00,
2013-11-15 07:49:00,37.8,31.2,30.32,SSW,203,0.0,0.0,77,0.00,,,0.00,53,Wunderground v.1.15,2013-11-15 12:49:00,
2013-11-15 07:55:00,38.1,30.9,30.32,SSW,203,0.0,0.0,75,0.00,,,0.00,60,Wunderground v.1.15,2013-11-15 12:55:00,
2013-11-15 08:13:00,39.9,33.0,30.32,SSW,203,0.0,0.0,76,0.00,,,0.00,83,weatherlink.com 1.10,2013-11-15 13:13:00,
2013-11-15 08:20:00,41.0,33.7,30.33,SSW,203,0.0,0.0,75,0.00,,,0.00,72,Wunderground v.1.15,2013-11-15 13:20:00,
2013-11-15 08:29:00,42.6,36.0,30.33,SSW,203,0.0,0.0,76,0.00,,,0.00,105,weatherlink.com 1.10,2013-11-15 13:29:00,
2013-11-15 08:34:00,43.3,36.2,30.33,SSW,203,0.0,0.0,76,0.00,,,0.00,120,Wunderground v.1.15,2013-11-15 13:34:00,
2013-11-15 08:40:00,43.8,35.7,30.34,SSW,203,0.0,0.0,73,0.00,,,0.00,109,Wunderground v.1.15,2013-11-15 13:40:00,
2013-11-15 08:45:00,44.2,35.4,30.34,SSW,203,0.0,0.0,71,0.00,,,0.00,105,Wunderground v.1.15,2013-11-15 13:45:00,
2013-11-15 08:55:00,44.9,36.4,30.35,SSW,203,0.0,0.0,72,0.00,,,0.00,74,Wunderground v.1.15,2013-11-15 13:55:00,
2013-11-15 09:00:00,45.2,36.0,30.34,SSW,203,0.0,1.0,71,0.00,,,0.00,95,weatherlink.com 1.10,2013-11-15 14:00:00,
2013-11-15 09:10:00,45.8,36.6,30.34,SSW,203,0.0,0.0,70,0.00,,,0.00,91,Wunderground v.1.15,2013-11-15 14:10:00,
2013-11-15 09:15:00,46.0,36.0,30.35,SSW,203,0.0,1.0,69,0.00,,,0.00,67,weatherlink.com 1.10,2013-11-15 14:15:00,
2013-11-15 09:24:00,46.1,36.5,30.35,SSW,203,0.0,0.0,69,0.00,,,0.00,149,Wunderground v.1.15,2013-11-15 14:24:00,
2013-11-15 09:30:00,46.4,36.4,30.34,SSW,203,0.0,0.0,68,0.00,,,0.00,169,Wunderground v.1.15,2013-11-15 14:30:00,
2013-11-15 09:35:00,46.7,36.7,30.34,SSW,203,0.0,0.0,68,0.00,,,0.00,188,Wunderground v.1.15,2013-11-15 14:35:00,
2013-11-15 09:40:00,47.1,37.1,30.34,SSW,203,0.0,0.0,68,0.00,,,0.00,162,Wunderground v.1.15,2013-11-15 14:40:00,
2013-11-15 09:45:00,47.5,38.0,30.34,SSW,203,0.0,1.0,69,0.00,,,0.00,151,weatherlink.com 1.10,2013-11-15 14:45:00,
2013-11-15 09:55:00,48.2,38.5,30.34,SSW,203,0.0,0.0,69,0.00,,,0.00,169,Wunderground v.1.15,2013-11-15 14:55:00,
2013-11-15 10:00:00,48.7,38.6,30.34,SSW,203,0.0,0.0,68,0.00,,,0.00,142,Wunderground v.1.15,2013-11-15 15:00:00,
2013-11-15 10:09:00,49.6,39.5,30.35,SSW,203,0.0,0.0,68,0.00,,,0.00,197,Wunderground v.1.15,2013-11-15 15:09:00,
2013-11-15 10:15:00,50.1,39.2,30.35,SSW,203,0.0,0.0,66,0.00,,,0.00,221,Wunderground v.1.15,2013-11-15 15:15:00,
2013-11-15 10:24:00,50.8,39.8,30.34,SSW,203,0.0,0.0,66,0.00,,,0.00,213,Wunderground v.1.15,2013-11-15 15:24:00,
2013-11-15 10:30:00,51.2,39.8,30.34,SSW,203,0.0,0.0,65,0.00,,,0.00,209,Wunderground v.1.15,2013-11-15 15:30:00,
2013-11-15 10:40:00,52.3,41.3,30.33,SSW,203,0.0,0.0,66,0.00,,,0.00,200,Wunderground v.1.15,2013-11-15 15:40:00,
2013-11-15 10:45:00,52.9,40.0,30.33,SSW,203,0.0,0.0,62,0.00,,,0.00,213,weatherlink.com 1.10,2013-11-15 15:45:00,
2013-11-15 10:54:00,53.8,41.1,30.33,SSW,203,0.0,0.0,62,0.00,,,0.00,202,Wunderground v.1.15,2013-11-15 15:54:00,
2013-11-15 10:59:00,54.3,41.6,30.33,SSW,203,0.0,0.0,62,0.00,,,0.00,204,Wunderground v.1.15,2013-11-15 15:59:00,
2013-11-15 11:04:00,54.7,40.2,30.33,SSW,203,0.0,0.0,58,0.00,,,0.00,171,Wunderground v.1.15,2013-11-15 16:04:00,
2013-11-15 11:10:00,55.0,41.4,30.32,SSW,203,0.0,0.0,60,0.00,,,0.00,197,Wunderground v.1.15,2013-11-15 16:10:00,
2013-11-15 11:16:00,55.4,42.0,30.32,SSW,205,0.0,2.0,60,0.00,,,0.00,207,weatherlink.com 1.10,2013-11-15 16:16:00,
2013-11-15 11:24:00,55.9,40.4,30.31,SSW,205,0.0,0.0,56,0.00,,,0.00,190,Wunderground v.1.15,2013-11-15 16:24:00,
2013-11-15 11:31:00,56.2,41.0,30.30,SSW,205,0.0,1.0,57,0.00,,,0.00,171,weatherlink.com 1.10,2013-11-15 16:31:00,
2013-11-15 11:40:00,56.5,42.3,30.30,SSW,205,0.0,0.0,59,0.00,,,0.00,197,Wunderground v.1.15,2013-11-15 16:40:00,
2013-11-15 11:45:00,56.7,41.2,30.30,SSW,205,0.0,0.0,56,0.00,,,0.00,202,Wunderground v.1.15,2013-11-15 16:45:00,
2013-11-15 11:55:00,57.2,42.1,30.29,SSW,205,0.0,0.0,57,0.00,,,0.00,220,Wunderground v.1.15,2013-11-15 16:55:00,
2013-11-15 12:00:00,57.8,41.3,30.29,SSW,208,0.0,0.0,54,0.00,,,0.00,232,Wunderground v.1.15,2013-11-15 17:00:00,
2013-11-15 12:10:00,58.2,41.1,30.28,SSW,209,0.0,0.0,53,0.00,,,0.00,193,Wunderground v.1.15,2013-11-15 17:10:00,
2013-11-15 12:17:00,58.2,40.0,30.28,WSW,257,0.0,1.0,51,0.00,,,0.00,206,weatherlink.com 1.10,2013-11-15 17:17:00,
2013-11-15 12:25:00,58.2,40.6,30.27,WSW,257,0.0,0.0,52,0.00,,,0.00,192,Wunderground v.1.15,2013-11-15 17:25:00,
2013-11-15 12:31:00,58.4,41.0,30.27,WSW,257,0.0,0.0,53,0.00,,,0.00,174,weatherlink.com 1.10,2013-11-15 17:31:00,
2013-11-15 12:39:00,58.6,42.9,30.27,WSW,254,0.0,0.0,56,0.00,,,0.00,179,Wunderground v.1.15,2013-11-15 17:39:00,
2013-11-15 12:45:00,58.6,42.0,30.27,WSW,255,0.0,0.0,54,0.00,,,0.00,171,Wunderground v.1.15,2013-11-15 17:45:00,
2013-11-15 12:55:00,59.1,42.9,30.26,WSW,254,0.0,0.0,55,0.00,,,0.00,174,Wunderground v.1.15,2013-11-15 17:55:00,
2013-11-15 13:02:00,59.1,43.0,30.26,WSW,254,0.0,1.0,56,0.00,,,0.00,160,weatherlink.com 1.10,2013-11-15 18:02:00,
2013-11-15 13:10:00,59.2,44.4,30.25,WSW,254,0.0,1.0,58,0.00,,,0.00,137,Wunderground v.1.15,2013-11-15 18:10:00,
2013-11-15 13:15:00,59.3,43.1,30.25,WSW,257,0.0,1.0,55,0.00,,,0.00,132,Wunderground v.1.15,2013-11-15 18:15:00,
2013-11-15 13:24:00,59.5,43.3,30.24,WSW,257,0.0,1.0,55,0.00,,,0.00,128,Wunderground v.1.15,2013-11-15 18:24:00,
2013-11-15 13:30:00,59.6,43.9,30.24,North,11,0.0,1.0,56,0.00,,,0.00,116,Wunderground v.1.15,2013-11-15 18:30:00,
2013-11-15 13:40:00,59.7,44.4,30.23,North,11,0.0,1.0,57,0.00,,,0.00,144,Wunderground v.1.15,2013-11-15 18:40:00,
2013-11-15 13:45:00,59.9,45.1,30.22,NNE,15,0.0,1.0,58,0.00,,,0.00,125,Wunderground v.1.15,2013-11-15 18:45:00,
2013-11-15 13:54:00,60.3,46.4,30.22,NNE,15,0.0,1.0,60,0.00,,,0.00,135,Wunderground v.1.15,2013-11-15 18:54:00,
2013-11-15 14:00:00,60.6,47.9,30.21,North,349,0.0,1.0,63,0.00,,,0.00,128,Wunderground v.1.15,2013-11-15 19:00:00,
2013-11-15 14:09:00,60.9,49.5,30.21,NNW,336,0.0,1.0,66,0.00,,,0.00,118,Wunderground v.1.15,2013-11-15 19:09:00,
2013-11-15 14:18:00,61.0,50.0,30.20,North,350,1.0,2.0,67,0.00,,,0.00,127,weatherlink.com 1.10,2013-11-15 19:18:00,
2013-11-15 14:25:00,61.0,50.0,30.19,NNW,336,0.0,1.0,67,0.00,,,0.00,105,Wunderground v.1.15,2013-11-15 19:25:00,
2013-11-15 14:30:00,60.9,49.9,30.19,NNW,333,0.0,1.0,67,0.00,,,0.00,100,Wunderground v.1.15,2013-11-15 19:30:00,
2013-11-15 14:39:00,60.8,50.2,30.19,West,269,0.0,1.0,68,0.00,,,0.00,91,Wunderground v.1.15,2013-11-15 19:39:00,
2013-11-15 14:45:00,60.8,50.6,30.19,West,269,0.0,1.0,69,0.00,,,0.00,86,Wunderground v.1.15,2013-11-15 19:45:00,
2013-11-15 14:50:00,60.8,50.6,30.19,West,269,0.0,1.0,69,0.00,,,0.00,91,Wunderground v.1.15,2013-11-15 19:50:00,
2013-11-15 14:59:00,60.7,50.9,30.20,West,269,0.0,1.0,70,0.00,,,0.00,81,Wunderground v.1.15,2013-11-15 19:59:00,
2013-11-15 15:04:00,60.7,50.5,30.20,West,270,0.0,1.0,69,0.00,,,0.00,72,Wunderground v.1.15,2013-11-15 20:04:00,
2013-11-15 15:09:00,60.7,50.5,30.19,West,269,0.0,1.0,69,0.00,,,0.00,67,Wunderground v.1.15,2013-11-15 20:09:00,
2013-11-15 15:15:00,60.6,50.4,30.20,West,269,0.0,1.0,69,0.00,,,0.00,60,Wunderground v.1.15,2013-11-15 20:15:00,
2013-11-15 15:20:00,60.6,50.8,30.20,West,269,0.0,1.0,70,0.00,,,0.00,70,Wunderground v.1.15,2013-11-15 20:20:00,
2013-11-15 15:29:00,60.6,50.4,30.20,West,269,0.0,1.0,69,0.00,,,0.00,54,Wunderground v.1.15,2013-11-15 20:29:00,
2013-11-15 15:40:00,60.7,50.9,30.20,West,269,0.0,1.0,70,0.00,,,0.00,62,Wunderground v.1.15,2013-11-15 20:40:00,
2013-11-15 15:49:00,60.7,50.1,30.19,West,269,0.0,1.0,68,0.00,,,0.00,53,Wunderground v.1.15,2013-11-15 20:49:00,
2013-11-15 15:55:00,60.7,50.1,30.19,West,275,0.0,1.0,68,0.00,,,0.00,58,Wunderground v.1.15,2013-11-15 20:55:00,
2013-11-15 16:03:00,60.6,50.0,30.19,West,275,0.0,1.0,68,0.00,,,0.00,62,weatherlink.com 1.10,2013-11-15 21:03:00,
2013-11-15 16:18:00,60.5,50.0,30.19,WNW,302,0.0,0.0,69,0.00,,,0.00,32,weatherlink.com 1.10,2013-11-15 21:18:00,
2013-11-15 16:33:00,60.2,50.0,30.19,WNW,302,0.0,1.0,68,0.00,,,0.00,28,weatherlink.com 1.10,2013-11-15 21:33:00,
2013-11-15 16:48:00,59.9,50.0,30.19,WNW,302,0.0,1.0,69,0.00,,,0.00,14,weatherlink.com 1.10,2013-11-15 21:48:00,
2013-11-15 17:03:00,59.5,50.0,30.19,WNW,303,0.0,0.0,70,0.00,,,0.00,7,weatherlink.com 1.10,2013-11-15 22:03:00,
2013-11-15 17:18:00,59.2,50.0,30.20,WNW,303,0.0,0.0,71,0.00,,,0.00,0,weatherlink.com 1.10,2013-11-15 22:18:00,
2013-11-15 17:33:00,58.7,49.0,30.19,WNW,303,0.0,0.0,71,0.00,,,0.00,0,weatherlink.com 1.10,2013-11-15 22:33:00,
2013-11-15 17:48:00,58.4,49.0,30.19,WNW,303,0.0,0.0,72,0.00,,,0.00,0,weatherlink.com 1.10,2013-11-15 22:48:00,
2013-11-15 18:03:00,58.0,49.0,30.19,WNW,303,0.0,0.0,73,0.00,,,0.00,0,weatherlink.com 1.10,2013-11-15 23:03:00,
2013-11-15 18:18:00,57.7,49.0,30.20,NW,304,0.0,1.0,73,0.00,,,0.00,0,weatherlink.com 1.10,2013-11-15 23:18:00,
2013-11-15 18:33:00,57.6,49.0,30.20,NW,304,0.0,0.0,74,0.00,,,0.00,0,weatherlink.com 1.10,2013-11-15 23:33:00,
2013-11-15 18:48:00,57.3,49.0,30.20,NW,304,0.0,0.0,75,0.00,,,0.00,0,weatherlink.com 1.10,2013-11-15 23:48:00,
2013-11-15 19:03:00,56.9,49.0,30.19,NW,304,0.0,0.0,76,0.00,,,0.00,0,weatherlink.com 1.10,2013-11-16 00:03:00,
2013-11-15 19:18:00,56.9,50.0,30.19,NW,304,0.0,0.0,77,0.00,,,0.00,0,weatherlink.com 1.10,2013-11-16 00:18:00,
2013-11-15 19:33:00,56.9,50.0,30.19,NW,304,0.0,0.0,78,0.00,,,0.00,0,weatherlink.com 1.10,2013-11-16 00:33:00,
2013-11-15 19:48:00,56.6,50.0,30.19,NNW,343,0.0,1.0,78,0.00,,,0.00,0,weatherlink.com 1.10,2013-11-16 00:48:00,
2013-11-15 20:03:00,56.4,50.0,30.19,North,355,0.0,1.0,80,0.00,,,0.00,0,weatherlink.com 1.10,2013-11-16 01:03:00,
2013-11-15 20:18:00,56.1,50.0,30.19,North,355,0.0,1.0,81,0.00,,,0.00,0,weatherlink.com 1.10,2013-11-16 01:18:00,
2013-11-15 20:33:00,55.8,50.0,30.19,North,355,0.0,0.0,82,0.00,,,0.00,0,weatherlink.com 1.10,2013-11-16 01:33:00,
2013-11-15 20:48:00,55.6,51.0,30.19,North,355,0.0,0.0,83,0.00,,,0.00,0,weatherlink.com 1.10,2013-11-16 01:48:00,
2013-11-15 21:03:00,55.4,51.0,30.21,North,355,0.0,1.0,84,0.00,,,0.00,0,weatherlink.com 1.10,2013-11-16 02:03:00,
2013-11-15 21:18:00,55.4,51.0,30.22,North,355,0.0,0.0,86,0.00,,,0.00,0,weatherlink.com 1.10,2013-11-16 02:18:00,
2013-11-15 21:33:00,54.8,51.0,30.22,North,355,0.0,1.0,87,0.00,,,0.00,0,weatherlink.com 1.10,2013-11-16 02:33:00,
2013-11-15 21:48:00,54.4,51.0,30.22,North,355,0.0,0.0,89,0.00,,,0.00,0,weatherlink.com 1.10,2013-11-16 02:48:00,
2013-11-15 22:03:00,54.0,52.0,30.22,North,355,0.0,0.0,91,0.01,,,0.01,0,weatherlink.com 1.10,2013-11-16 03:03:00,
2013-11-15 22:18:00,53.5,51.0,30.24,North,355,0.0,1.0,92,0.02,,,0.02,0,weatherlink.com 1.10,2013-11-16 03:18:00,
2013-11-15 22:33:00,53.1,51.0,30.22,North,355,0.0,0.0,93,0.02,,,0.02,0,weatherlink.com 1.10,2013-11-16 03:33:00,
2013-11-15 22:48:00,52.8,51.0,30.21,North,355,0.0,0.0,93,0.02,,,0.02,0,weatherlink.com 1.10,2013-11-16 03:48:00,
2013-11-15 23:03:00,52.4,51.0,30.21,North,355,0.0,0.0,93,0.01,,,0.02,0,weatherlink.com 1.10,2013-11-16 04:03:00,
2013-11-15 23:18:00,52.1,50.0,30.20,North,355,0.0,0.0,93,0.00,,,0.02,0,weatherlink.com 1.10,2013-11-16 04:18:00,
2013-11-15 23:33:00,52.1,51.0,30.22,North,355,0.0,0.0,94,0.00,,,0.02,0,weatherlink.com 1.10,2013-11-16 04:33:00,
2013-11-15 23:48:00,52.0,50.0,30.21,North,355,0.0,0.0,94,0.00,,,0.02,0,weatherlink.com 1.10,2013-11-16 04:48:00,